This demonstration page uses our WeatherBlox Daily Observations layout. Learn more.

Left ArrowRight Arrow

Hourly Observations for April 24, 2018

Temp ( °F °C ) Dew Point ( °F °C ) Humidity (%) Winds ( mph kmh ) Pressure ( in mb ) Visibility ( mi km ) Precip ( " mm )
12:51 am 00:51 Clear 68 20 16 -8.9 13 13 NW 10 17 29.84 1011 10 16 0.00 0.00
1:51 am 01:51 Clear 67 19.4 17 -8.3 15 15 NW 9 15 29.84 1011 10 16 0.00 0.00
2:51 am 02:51 Clear 66 18.9 18 -7.8 16 16 VRB 3 6 29.84 1011 10 16 0.00 0.00
3:51 am 03:51 Clear 58 14.4 19 -7.2 22 22 SSE 7 11 29.87 1012 10 16 0.00 0.00
4:51 am 04:51 Clear 55 12.8 17 -8.3 22 22 E 6 9 29.88 1012 10 16 0.00 0.00
5:51 am 05:51 Sunny 57 13.9 19 -7.2 23 23 S 5 7 29.90 1012 10 16 0.00 0.00
6:51 am 06:51 Sunny 59 15 19 -7.2 21 21 ESE 5 7 29.93 1013 10 16 0.00 0.00
7:51 am 07:51 Sunny 67 19.4 18 -7.8 15 15 SSE 5 7 29.93 1014 10 16 0.00 0.00
8:51 am 08:51 Sunny 73 22.8 19 -7.2 13 13 Calm 29.92 1013 10 16 0.00 0.00
9:51 am 09:51 Sunny 80 26.7 19 -7.2 10 10 VRB 5 7 29.90 1013 10 16 0.00 0.00
10:51 am 10:51 Sunny 83 28.3 18 -7.8 9 9 undefined N/A 29.89 1012 10 16 0.00 0.00
11:51 am 11:51 Sunny 87 30.6 15 -9.4 7 7 Calm 29.86 1011 10 16 0.00 0.00
12:51 pm 12:51 Sunny 87 30.6 15 -9.4 7 7 SE 7 11 29.83 1010 10 16 0.00 0.00
1:51 pm 13:51 Sunny 90 32.2 15 -9.4 6 6 undefined N/A 29.81 1010 10 16 0.00 0.00
2:51 pm 14:51 Sunny 92 33.3 14 -10 5 5 W 9 15 29.78 1008 10 16 0.00 0.00
3:51 pm 15:51 Sunny 91 32.8 10 -12.2 5 5 Calm 29.77 1008 10 16 0.00 0.00
4:51 pm 16:51 Sunny 92 33.3 7 -13.9 4 4 VRB 5 7 29.76 1008 10 16 0.00 0.00
5:51 pm 17:51 Sunny 90 32.2 10 -12.2 5 5 NW 13 20 29.76 1008 10 16 0.00 0.00
6:51 pm 18:51 Sunny 86 30 10 -12.2 6 6 WNW 15 24 29.78 1008 10 16 0.00 0.00
7:51 pm 19:51 Clear 82 27.8 11 -11.7 7 7 NW 13 20 29.80 1009 10 16 0.00 0.00
8:51 pm 20:51 Clear 79 26.1 10 -12.2 7 7 NW 10 17 29.83 1010 10 16 0.00 0.00
9:51 pm 21:51 Clear 75 23.9 11 -11.7 8 8 WNW 10 17 29.83 1010 10 16 0.00 0.00
10:51 pm 22:51 Clear 72 22.2 13 -10.6 10 10 WNW 10 17 29.83 1010 10 16 0.00 0.00
11:51 pm 23:51 Clear 70 21.1 14 -10 11 11 WNW 7 11 29.84 1011 10 16 0.00 0.00

Powered by AerisWeather